Showing default

JILIN-01-08, 43160

Orbit data source: Space-Track

JILIN-01-08, 43160 is a payload satellite owned by Changguang WJ (CN) in SSO that was launched on Fri, 19 Jan 2018 UTC via a CHANG ZHENG 11 launch vehicle from the Jiuquan Satellite Launch Center, China (JSC). Payloads include a variety of satellites, spacecraft, and rockets equipped with specific instruments for various scientific and technological missions. These include communications satellites like Starlink; space stations such as the ISS; scientific satellites like the Hubble; Earth observation satellites from companies like Planet Labs, Umbra, and HawkEye 360; GPS; miniature CubeSats for education and research; and military/defense satellites.

Loading next visibility...
JILIN-01-08 details
Identifier
43160, 2018-008F
Orbit
SSO
Last TLE update6 hours ago
Origin
Flag of CNChangguang WJ (CN / PRC)
ManufacturerChangguang WJ
MissionOperational Commercial Imaging
Bus & MotorJL-1, Unknown motor
Mass95 kg wet, 95 kg dry
Launch date (UTC)
2018-01-19 (7 years ago)
Launch vehicle
CHANG ZHENG 11
Launch site
Jiuquan Satellite Launch Center, China (JSC)
Object type
Payload
Rocket body
Debris
Shape & HBRBox + 2 Pan, 1.5 m
Radar Cross Section2.000 m², Medium (>0.1 m² and < 1m²)

Expand to show TLE details & history

TLE from 6 hours ago
0 JILIN-01-08
1 43160U 18008F   24361.25956768  .00011801  00000-0  49584-3 0  9999
2 43160  97.2272  26.6883 0007303 176.1357 183.9938 15.23554459382750
Epoch: 2024-12-26T06:13Z
Definitive object data (Epoch: 2024-12-26T06:13:46.647Z)
Latitude-0.00005°
Longitude-161.99758°
Altitude503.238 km
Speed7.61 km/s
True Right ascension01h 46m 45s
True Declination0° 00' 00"
Sunlit
Object was in daylight at TLE epoch
Visualization TLE readout
Latitude-80.58633°
Longitude-31.28508°
Altitude523.162 km
Speed7.6 km/s
Apparent Right ascension23h 45m 27s
Apparent Declination-70° 38' 40"
Sunlit
Object is in daylight
Visualization observer readout
Local Sidereal Time11:28:13
Azimuth182.786° SSW
Elevation-59.191°
Doppler factor1
Orbital elements
Apogee altitude497.1 km
Perigee altitude487.066 km
Semi-major axis6,870.22 km
Eccentricity0.0007303
Inclination97.2272°
RAAN26.6883°
Arg. of periapsis176.1357°
True anomaly183.98798°
Mean anomaly183.9938°
Eccentric anomaly183.99089°
Mean motion3.81142 °/min
BSTAR0.00049584
Orbital period94.45 mins
Loading maneuver chart data...
Loading historical data...
Loading historical data...
Loading historical data...
Loading historical data...
Loading historical data...
Loading historical data...
Loading historical data...

JILIN-01-08 Visibility forecast

Observer location: undefined°, undefined

Span
Click to sort rows by Start time (UTC) header in descending order
Start Az.
Max El. time (UTC)
Max El. Az.
Max El.
End time (UTC)
End Az.
6 mins2024-12-26 14:40:46.118Z18.169° NNE2024-12-26 14:43:46.118Z146.652° SSE42.115°2024-12-26 14:46:46.118Z185.744° SSW
4 mins2024-12-27 01:18:46.118Z98.441° ESE2024-12-27 01:19:46.118Z72.713° E22.738°2024-12-27 01:22:46.118Z15.758° NNE
|